London-Corbin, KY

4:17 AM EDT on October 14, 2019 (GMT -0400)
London-Corbin / McKee

Weather History for KLOZ - September, 2019

Change the Weather History Date:

Thursday, September 19, 2019

  Actual Average Record
Temperature  
Mean Temperature 75 °F 67 °F  
Max Temperature 85 °F 79 °F 92 °F (1978)
Min Temperature 65 °F 56 °F 39 °F (1956)
Degree Days  
Heating Degree Days 0 2  
Month to date heating degree days 0 11  
Since 1 July heating degree days 0 12  
Cooling Degree Days 10 4  
Month to date cooling degree days 213 113  
Year to date cooling degree days 1327 1137  
Growing Degree Days 24 (Base 50)    
Moisture  
Dew Point 62 °F    
Average Humidity 66    
Maximum Humidity 81    
Minimum Humidity 51    
Precipitation  
Precipitation 0.00 in 0.11 in 0.51 in (1968)
Month to date precipitation T 2.13  
Sea Level Pressure  
Sea Level Pressure 30.11 in    
Wind  
Wind Speed 5 mph (SSE)    
Max Wind Speed 13 mph    
Max Gust Speed 20 mph    
Visibility 10 miles    
Events      
T = Trace of Precipitation, MM = Missing Value Source: NWS Daily Summary

Daily Weather History Graph

Daily Weather History Graph

Search for Another Location

Airport or City:

Astronomy

Sep. 19, 2019 Rise Set
Actual Time 7:21 AM EDT 7:38 PM EDT
Civil Twilight 6:55 AM EDT 8:04 PM EDT
Nautical Twilight 6:25 AM EDT 8:34 PM EDT
Astronomical Twilight 5:54 AM EDT 9:05 PM EDT
Moon 10:53 PM EDT (9/19) 12:17 PM EDT (9/19)
Length of Visible Light 13h 08m
Length of Day
12h 16m
Waning Gibbous, 74% of the Moon is Illuminated
Sep 19
Waning Gibbous
Sep 21
Last Quarter
Sep 28
New
Oct 5
First Quarter
Oct 13
Full

Hourly Weather History & Observations

Time (EDT) Temp. Heat Index Dew Point Humidity Pressure Visibility Wind Dir Wind Speed Gust Speed Precip Events Conditions
12:53 AM 71.1 °F - 64.0 °F 78% 30.05 in 10.0 mi Calm Calm - N/A   Clear
1:53 AM 71.1 °F - 63.0 °F 75% 30.05 in 10.0 mi Calm Calm - N/A   Clear
2:53 AM 69.1 °F - 62.1 °F 78% 30.05 in 10.0 mi ESE 3.5 mph - N/A   Clear
3:53 AM 69.1 °F - 61.0 °F 75% 30.06 in 10.0 mi SSE 4.6 mph - N/A   Clear
4:53 AM 68.0 °F - 61.0 °F 78% 30.06 in 10.0 mi SE 3.5 mph - N/A   Clear
5:53 AM 68.0 °F - 60.1 °F 76% 30.07 in 10.0 mi Calm Calm - N/A   Partly Cloudy
6:53 AM 66.0 °F - 60.1 °F 81% 30.10 in 10.0 mi Calm Calm - N/A   Partly Cloudy
7:53 AM 66.0 °F - 60.1 °F 81% 30.12 in 10.0 mi Calm Calm - N/A   Clear
8:53 AM 69.1 °F - 61.0 °F 75% 30.13 in 10.0 mi South 3.5 mph - N/A   Clear
9:53 AM 73.0 °F - 61.0 °F 66% 30.14 in 10.0 mi South 11.5 mph 18.4 mph N/A   Clear
10:53 AM 75.9 °F - 61.0 °F 60% 30.14 in 10.0 mi Variable 6.9 mph 17.3 mph N/A   Scattered Clouds
11:53 AM 78.1 °F - 61.0 °F 56% 30.15 in 10.0 mi SSW 10.4 mph - N/A   Mostly Cloudy
12:53 PM 79.0 °F - 62.1 °F 56% 30.14 in 10.0 mi Variable 5.8 mph - N/A   Partly Cloudy
1:53 PM 81.0 °F 81.9 °F 62.1 °F 52% 30.14 in 10.0 mi SSW 6.9 mph - N/A   Mostly Cloudy
2:53 PM 82.9 °F 83.7 °F 62.1 °F 49% 30.12 in 10.0 mi SW 8.1 mph - N/A   Clear
3:53 PM 82.9 °F 83.7 °F 62.1 °F 49% 30.10 in 10.0 mi WSW 4.6 mph - N/A   Partly Cloudy
4:53 PM 82.9 °F 83.7 °F 62.1 °F 49% 30.09 in 10.0 mi SSW 4.6 mph - N/A   Partly Cloudy
5:53 PM 82.0 °F 83.1 °F 63.0 °F 52% 30.09 in 10.0 mi SE 5.8 mph - N/A   Scattered Clouds
7:53 PM 75.0 °F - 64.0 °F 69% 30.10 in 10.0 mi SSE 4.6 mph - N/A   Clear
8:53 PM 73.0 °F - 62.1 °F 68% 30.12 in 10.0 mi SE 4.6 mph - N/A   Clear
9:53 PM 72.0 °F - 61.0 °F 68% 30.13 in 10.0 mi SSE 3.5 mph - N/A   Clear
10:53 PM 70.0 °F - 60.1 °F 71% 30.14 in 10.0 mi SE 3.5 mph - N/A   Clear
11:53 PM 68.0 °F - 60.1 °F 76% 30.15 in 10.0 mi SE 3.5 mph - N/A   Clear